Preview of NWS' New Version of Forecast
This preview is not operational and should not be used for support decisions.

Regional Weather Roundup (RWR)

Issued by National Weather Service (NWS)

                            
000
ASUS44 KJAN 182010
RWRMS 

MISSISSIPPI HOURLY WEATHER ROUNDUP
NATIONAL WEATHER SERVICE JACKSON MS
300 PM CDT TUE JUN 18 2019

NOTE: "FAIR: INDICATES FEW OR NO CLOUDS BELOW 12,000 FEET WITH NO
SIGNIFICANT WEATHER AND/OR OBSTRUCTIONS TO VISIBILITY.

MSZ001>002-007>008-010>013-018>021-025>028-034>036-182100-
NORTHWEST MISSISSIPPI
  
CITY           SKY/WX    TMP DP  RH WIND       PRES   REMARKS
BATESVILLE     CLOUDY    81  73  78 CALM      29.87F                  
CLARKSDALE     MOSUNNY   91  70  49 W7        29.87S HX  97           
CLEVELAND      FAIR      87  71  59 NW6       29.86F HX  92           
GREENWOOD      FAIR      87  72  60 VRB6      29.87F HX  93           
GREENVILLE     PTSUNNY   86  72  62 S8        29.86F HX  92           
OLIVE BRANCH   PTSUNNY   84  75  74 S6        29.87F HX  92           
OXFORD         PTSUNNY   79  70  73 NW5       29.90F                  
TUNICA           N/A     82  66  57 CALM      29.87F                  
WINONA         MOCLDY    83  73  72 W3        29.87F                  
$$

MSZ003>006-009-014>017-022>024-029>033-037>039-182100-
NORTHEAST MISSISSIPPI
  
CITY           SKY/WX    TMP DP  RH WIND       PRES   REMARKS
ABERDEEN       MOCLDY    77  77 100 VRB5      29.89F                  
COLUMBUS AFB   FAIR      82  73  76 CALM      29.88S                  
CORINTH        CLOUDY    79  70  73 CALM      29.88F                  
GOLDN TRIANGLE CLOUDY    79  74  84 SW7       29.89S                  
STARKVILLE     MOCLDY    81  72  74 SW6       29.89F                  
TUPELO         PTSUNNY   80  72  76 NW12      29.87F                  
$$

MSZ040-058-182100-
CENTRAL MISSISSIPPI
  
CITY           SKY/WX    TMP DP  RH WIND       PRES   REMARKS
JACKSON INTL   PTSUNNY   89  69  51 W8        29.89F HX  93           
JACKSON HAWKNS FAIR      89  72  56 W9        29.90F HX  96           
MADISON        FAIR      84  70  61 SW9       29.89F                  
MERIDIAN KEY   FAIR      87  73  62 S10       29.89F HX  94           
MERIDIAN NAS   PTSUNNY   85  73  67 SW7       29.89F HX  91           
RAYMOND          N/A     88  75  66 W7G13     29.89F HX  97           
VICKSBURG VKS  CLEAR     86  72  62 W7G13     29.89F HX  92           
$$

MSZ059>079-182100-
SOUTH MISSISSIPPI
  
CITY           SKY/WX    TMP DP  RH WIND       PRES   REMARKS
BROOKHAVEN     FAIR      88  72  58 E5        29.92F HX  94           
HATTIESBURG    FAIR      86  74  67 S9        29.91F HX  94           
LAUREL         PTCLDY    85  73  67 NW5       29.89F HX  91           
MCCOMB         FAIR      88  71  57 VRB7      29.90F HX  94           
NATCHEZ        FAIR      87  72  60 S6        29.90F HX  93           
PINE BELT      FAIR      87  74  64 VRB6      29.91F HX  95           
$$

MSZ080>082-182100-
COASTAL MISSISSIPPI
  
CITY           SKY/WX    TMP DP  RH WIND       PRES   REMARKS
BILOXI         FAIR      86  73  65 W8        29.90F HX  93           
PASCAGOULA     PTSUNNY   84  74  71 SW6       29.92F HX  91           
GULFPORT       PTSUNNY   87  73  62 SW10      29.89F HX  94           
$$

LAZ007>009-015>016-023>026-182100-
NORTHEAST LOUISIANA
  
CITY           SKY/WX    TMP DP  RH WIND       PRES   REMARKS
BASTROP        FAIR      90  68  48 W8        29.88F HX  94           
TALLULAH/VBURG FAIR      87  74  64 VRB6      29.88F HX  95           
VIDALIA        FAIR      88  72  59 S3        29.89F HX  94           
$$